sat.trackr.live / text

‹ back to catalog

STARLINK-30595

NORAD 58111 · 2023-161Q

PAYLOAD ACTIVE UNKNOWN

§ Identity

Operator
Country
US
Launch date
2023-10-21
Launch site
AFWTR
Launch vehicle
Mass (kg)
RCS (m²)

Purposes: comms

External: N2YO · Heavens-Above · Gunter

§ Orbital elements

Epoch: 2026-05-24T19:22:44.101632Z

Period
94.11 min
Inclination
53.1597°
Eccentricity
0.0001227
Mean motion
15.30192676 rev/d
Perigee alt
474.4 km
Apogee alt
476.1 km
Semi-major
6,853.4 km
B*
2.1456e-5
RAAN
172.1117°
Arg perigee
82.0944°
Mean anomaly
278.0197°
Rev number
14,607

§ Raw data

STARLINK-305951 58111U 23161Q   26144.80745488  .00000276  00000+0  21456-4 0  99962 58111  53.1597 172.1117 0001227  82.0944 278.0197 15.30192676146079

JSON: /api/v1/satellites/58111 · /tle

For live sub-satellite position, see the globe view (requires WebGL).

§ Visibility from observer

Set your observer location to see the next 7 days of passes ≥ 10°. The values pass through the URL so the page stays shareable.

No JS? Fill the form by hand. The geolocation button needs JavaScript.